SP3ZBZ-13 Weather Reports


time (UTC)temp
C
wind
direction
speed
KPH
gust
KPH
rain 1hr
cm
rain 24hr
cm
rain mn
cm
humidity
%
barometer
mb
20260507020622 6 4 9.7 16.1 0.00 0.00 0.00 91 1005.2
20260507015121 6 0 9.7 17.7 0.00 0.00 0.00 92 1005.1
20260507013620 6 348 9.7 16.1 0.00 0.00 0.00 92 1005.0
20260507012119 6 338 8.0 14.5 0.00 0.00 0.00 92 1004.9
20260507010619 6 12 9.7 16.1 0.00 0.00 0.00 91 1005.0
20260507005117 6 342 6.4 12.9 0.00 0.00 0.00 91 1005.0
20260507003617 6 22 6.4 12.9 0.00 0.00 0.00 92 1005.0
20260507002116 6 338 6.4 9.7 0.00 0.00 0.00 93 1004.7
20260507000614 6 348 6.4 11.3 0.00 0.00 0.00 93 1004.7
20260506235114 6 356 8.0 11.3 0.00 0.00 0.00 92 1004.8
20260506233613 6 5 9.7 16.1 0.00 0.00 0.00 92 1004.7
20260506232112 7 0 8.0 14.5 0.00 0.00 0.00 92 1004.5
20260506230611 7 3 8.0 17.7 0.00 0.00 0.00 92 1004.4
20260506225110 7 348 9.7 17.7 0.00 0.00 0.00 92 1004.1
20260506223609 7 312 8.0 16.1 0.00 0.00 0.00 93 1004.2
20260506222108 7 0 9.7 14.5 0.00 0.00 0.00 93 1004.1
20260506220607 7 348 8.0 16.1 0.00 0.00 0.00 92 1004.1
20260506215106 7 324 9.7 16.1 0.00 0.00 0.00 92 1003.8
20260506213605 7 338 8.0 14.5 0.00 0.00 0.00 92 1003.9
20260506212104 7 0 6.4 9.7 0.00 0.00 0.00 92 1004.1
20260506210603 7 18 6.4 9.7 0.00 0.00 0.00 92 1004.1
20260506205102 7 294 8.0 16.1 0.00 0.00 0.00 92 1004.1
20260506203601 7 342 8.0 14.5 0.00 0.00 0.00 92 1003.9
20260506202100 7 348 9.7 16.1 0.00 0.00 0.00 93 1003.7
20260506200559 7 18 9.7 17.7 0.00 0.00 0.00 93 1003.8
20260506195058 7 60 9.7 16.1 0.00 0.00 0.00 93 1003.5
20260506193557 8 0 9.7 14.5 0.00 0.00 0.00 94 1003.6
20260506192056 8 348 9.7 16.1 0.00 0.00 0.00 94 1003.5
20260506190555 8 356 9.7 17.7 0.00 0.00 0.00 92 1003.2
20260506185054 9 354 8.0 14.5 0.00 0.00 0.00 91 1003.0
20260506183554 10 258 4.8 9.7 0.00 0.00 0.00 89 1002.6
20260506182052 10 294 6.4 9.7 0.00 0.00 0.00 89 1002.5
20260506180552 10 306 6.4 11.3 0.00 0.00 0.00 90 1002.3
20260506175051 10 0 6.4 12.9 0.00 0.00 0.00 90 1002.3
20260506173550 10 270 6.4 12.9 0.00 0.00 0.00 90 1002.3
20260506172049 10 264 6.4 14.5 0.00 0.00 0.00 90 1002.3
20260506170548 10 300 8.0 14.5 0.00 0.00 0.00 90 1002.1
20260506165047 11 276 8.0 16.1 0.00 0.00 0.00 90 1002.0
20260506163546 11 288 6.4 12.9 0.00 0.00 0.00 89 1002.0
20260506162045 11 300 6.4 11.3 0.00 0.00 0.00 89 1002.0
20260506160544 11 253 8.0 12.9 0.00 0.00 0.00 90 1002.0
20260506155044 11 234 6.4 9.7 0.00 0.00 0.00 89 1001.8
20260506153543 11 270 6.4 11.3 0.00 0.00 0.00 90 1001.6
20260506152042 11 276 6.4 12.9 0.00 0.00 0.00 90 1001.5
20260506150540 12 246 6.4 9.7 0.00 0.00 0.00 89 1001.4
20260506145039 12 258 6.4 9.7 0.00 0.00 0.00 91 1001.4
20260506143538 12 281 4.8 8.0 0.00 0.00 0.00 91 1001.5
20260506142038 12 270 4.8 8.0 0.00 0.00 0.00 91 1001.3
20260506140536 12 270 3.2 6.4 0.00 0.00 0.00 91 1001.3
20260506135035 12 321 4.8 8.0 0.00 0.00 0.00 92 1001.1
20260506133534 12 330 4.8 9.7 0.00 0.00 0.00 93 1001.0
20260506132033 12 294 4.8 6.4 0.03 0.00 0.00 93 1000.9
20260506130532 12 351 4.8 8.0 0.03 0.00 0.00 93 1000.9
20260506125032 11 324 4.8 9.7 0.03 0.00 0.00 92 1000.8
20260506123531 12 324 4.8 9.7 0.00 0.00 0.00 90 1000.8
20260506122030 12 312 4.8 9.7 0.00 0.00 0.00 86 1000.6
20260506120529 13 348 4.8 8.0 0.00 0.00 0.00 81 1000.6
20260506115028 12 324 4.8 6.4 0.00 0.00 0.00 81 1000.6
20260506113527 12 342 4.8 8.0 0.00 0.00 0.00 82 1000.5
20260506112026 12 332 3.2 8.0 0.00 0.00 0.00 82 1000.6
20260506110525 12 318 1.6 4.8 0.00 0.00 0.00 81 1000.7
20260506105023 12 342 4.8 6.4 0.00 0.00 0.00 82 1000.6
20260506103523 12 319 1.6 4.8 0.00 0.00 0.00 83 1000.7
20260506102022 12 324 1.6 6.4 0.00 0.00 0.00 82 1000.7
20260506100521 12 36 3.2 8.0 0.00 0.00 0.00 84 1000.6
20260506095020 11 42 3.2 6.4 0.00 0.00 0.00 84 1000.5
20260506093519 11 48 3.2 8.0 0.00 0.00 0.00 85 1000.7
20260506092018 11 72 4.8 9.7 0.00 0.00 0.00 84 1000.6
20260506090517 11 84 4.8 9.7 0.00 0.00 0.00 85 1000.5
20260506085016 11 27 6.4 9.7 0.00 0.00 0.00 86 1000.6
20260506083515 10 66 4.8 9.7 0.00 0.00 0.00 87 1000.6
20260506082014 10 78 6.4 9.7 0.00 0.00 0.00 87 1000.7
20260506080513 10 24 6.4 9.7 0.00 0.00 0.00 87 1000.7
20260506073511 10 54 6.4 11.3 0.03 0.00 0.00 89 1000.6
20260506072010 10 60 6.4 12.9 0.03 0.00 0.00 89 1000.7
20260506070509 10 36 9.7 16.1 0.00 0.00 0.00 88 1000.4
20260506062007 9 42 9.7 16.1 0.00 0.00 0.00 88 1000.6
20260506060506 9 60 9.7 16.1 0.00 0.00 0.00 88 1000.7
20260506050502 9 24 8.0 16.1 0.00 0.00 0.00 90 1000.7
20260506045000 9 72 8.0 16.1 0.00 0.00 0.00 90 1000.8
20260506043459 8 66 9.7 17.7 0.00 0.00 0.00 90 1001.1
20260506041958 8 24 8.0 14.5 0.00 0.00 0.00 91 1001.3
20260506040457 8 30 6.4 12.9 0.00 0.00 0.00 92 1001.6
20260506034956 8 348 6.4 12.9 0.00 0.00 0.00 92 1001.8
20260506033455 8 36 6.4 11.3 0.00 0.00 0.00 92 1001.9
20260506031955 8 12 6.4 9.7 0.00 0.00 0.00 92 1002.1
20260506030453 8 356 6.4 12.9 0.00 0.00 0.00 91 1002.4
20260506024952 8 36 6.4 9.7 0.03 0.00 0.00 92 1002.5
20260506023451 8 11 8.0 16.1 0.03 0.00 0.00 92 1002.6
20260506021951 8 72 9.7 16.1 0.03 0.00 0.00 92 1002.5